Lid_Strength_Index
0 -0 -0 -0 -0 -0 -0 -0 0 0 1 1 -0 -0 -0 -1 -1 0 -1 -1 -2 -2 -2 -2 -2 -2 -1 -1 -1 -1 -1 -1 -1 -1 -1 -1 -1 -1 -1 -1 -1 -2 -1
-0 -0 -0 -0 0 0 -0 0 0 0 1 0 -0 -0 -0 -1 -1 0 -1 -1 -2 -2 -2 -2 -2 -1 -1 -1 -1 -1 -1 -1 -1 -1 -1 -1 -1 -1 -1 -1 -1 -1 -1
-0 -0 -0 1 1 0 1 0 0 -0 -0 0 1 0 0 0 -1 -0 -1 -1 -1 -2 -2 -2 -2 -1 -1 -1 -1 -1 -1 -1 -1 -1 -1 -1 -1 -1 -1 -1 -1 -1 -1
-1 -0 -0 0 -1 0 1 -0 0 0 1 1 1 2 3 2 1 -1 -1 -1 -1 -1 -2 -2 -2 -2 -2 -1 -1 -1 -1 -1 -1 -1 -1 -1 -1 -1 -1 -1 -1 -1 -1
-1 -0 -0 -0 -0 0 -0 0 0 1 1 1 1 4 4 4 3 1 1 0 -0 -1 -1 -2 -2 -2 -2 -1 -1 -1 -1 -1 -2 -1 -1 -1 -1 -1 -1 -1 -1 -1 -1
-1 -0 -0 0 0 0 0 0 1 1 2 2 5 5 5 4 2 3 3 3 2 -1 -1 -1 -1 -1 -1 -2 -1 -2 -2 -1 -2 -1 -1 -1 -1 -1 -1 -1 -1 -1 -1
-1 -0 -0 0 0 0 0 0 1 1 2 3 6 6 6 6 5 5 4 3 1 0 -1 -1 -1 -1 -1 -2 -2 -2 -1 -1 -1 -1 -2 -2 -1 -1 -1 -1 -1 -1 -1
-0 0 0 0 0 1 0 1 1 3 2 3 4 7 7 5 5 4 5 5 5 3 -0 -1 -1 -1 -1 -1 -1 -1 0 -0 -0 -0 -1 -2 -2 -1 -1 -1 -1 -1 -1
-0 0 0 1 1 0 1 1 1 2 3 4 5 5 8 7 7 4 5 6 6 6 5 3 -0 -1 0 0 1 1 0 0 -0 -0 -0 -1 -1 -1 -1 -1 -1 -1 -1
0 -0 -0 0 0 0 1 1 0 1 3 4 5 6 7 6 7 6 4 5 6 6 3 2 2 1 2 1 2 1 0 1 1 -0 -1 -1 -1 -1 -1 -2 -1 -1 -1
1 1 -0 -0 0 0 0 0 1 1 2 3 5 6 7 8 7 6 7 6 6 6 4 1 -0 2 2 2 2 2 -0 0 1 -0 -1 -1 -1 -1 -1 -2 -1 -1 -1
5 2 -0 -0 -0 0 0 0 0 1 2 5 6 7 6 7 8 8 8 8 8 7 6 3 4 4 3 3 3 1 0 0 1 1 0 0 -1 -1 -1 -1 -2 -2 -1
8 7 4 1 0 0 0 0 1 1 5 5 6 7 7 7 7 8 9 10 9 8 7 5 5 4 4 4 3 1 1 2 2 1 2 2 2 1 1 1 0 -1 -2
9 7 6 4 2 0 0 0 1 3 5 5 7 7 7 8 7 9 9 10 10 10 9 6 6 5 4 3 3 2 3 3 3 3 4 4 3 3 3 2 1 1 0
10 8 7 7 6 4 0 0 1 3 5 6 7 7 7 7 8 9 9 9 9 11 10 8 6 5 5 4 4 4 5 5 5 4 4 5 4 4 4 4 3 2 1
10 9 8 7 6 6 1 1 3 4 5 7 7 8 8 9 8 9 9 9 9 9 9 8 7 6 5 5 5 6 6 7 7 6 5 5 5 4 5 4 4 3 2
10 10 9 8 7 6 2 3 3 5 6 6 7 7 8 8 9 9 9 9 9 8 8 8 7 6 6 6 6 6 7 7 7 7 6 6 6 6 5 5 5 4 3
9 9 9 9 8 6 3 2 4 5 6 6 7 7 7 8 9 8 8 9 9 8 8 8 8 8 7 7 7 7 8 8 8 7 7 6 6 6 5 5 5 4 3
8 8 8 8 7 5 4 2 3 5 6 6 6 6 6 8 9 8 8 9 9 10 10 9 10 9 9 8 8 8 8 8 8 8 7 7 7 6 5 6 5 4 4
9 8 8 8 7 5 4 1 3 5 5 5 5 5 7 8 8 9 9 9 10 11 10 10 10 10 10 9 9 9 9 9 9 9 8 8 7 6 5 5 4 3 4
10 8 8 8 7 6 4 2 3 5 6 7 6 6 7 7 7 8 9 10 10 10 11 11 12 11 11 10 9 9 10 10 9 9 9 8 7 6 4 4 3 3 4
9 8 7 7 7 5 5 4 2 4 6 7 8 8 7 7 7 8 8 9 9 10 10 10 11 11 10 10 10 9 10 11 12 9 9 9 7 7 6 3 5 5 5
7 5 5 6 7 5 4 6 5 5 6 8 7 8 7 7 8 8 8 8 8 8 9 10 10 10 10 9 9 10 10 11 11 9 10 9 7 8 7 5 5 5 6
9 8 7 5 4 2 6 7 6 5 7 8 8 7 8 9 9 8 8 8 9 8 8 9 8 9 9 9 9 9 9 10 10 10 9 10 8 9 7 6 5 5 6
11 11 9 9 9 7 6 7 6 7 8 9 10 10 10 10 10 10 7 10 10 10 10 10 10 10 10 10 9 9 10 11 11 10 9 9 9 9 7 7 4 6 6
11 10 10 11 9 9 9 8 7 8 10 12 12 12 12 12 12 11 10 11 12 12 12 12 11 11 11 10 10 9 10 11 11 11 9 10 9 9 10 7 6 5 4